Theta_e
333 330 327 326 333 338 339 339 338 337 337 336 335 329 328 327 324 324 325 325 326 327 329 329 328 327 329 333 335 336 336 338 338 339 341 338 330 324 323 326 328 327 326
333 331 328 326 324 327 332 332 335 336 336 334 330 325 325 324 323 325 327 327 326 326 326 326 326 326 327 326 326 326 328 333 336 340 343 344 345 335 329 332 331 329 329
333 332 330 329 328 326 324 326 327 329 330 326 324 324 323 325 327 327 326 325 325 324 324 325 325 325 325 325 325 325 325 324 325 328 334 342 343 340 345 334 337 334 331
333 333 333 333 332 330 327 325 324 324 324 324 324 325 325 325 324 323 323 323 323 323 323 323 323 323 324 324 324 324 325 324 324 324 324 326 331 337 339 343 339 340 338
333 334 335 334 332 328 328 327 326 325 325 325 325 324 324 323 323 326 331 334 335 335 334 332 329 329 329 330 329 328 326 324 324 325 326 325 326 335 341 342 343 341 339
333 335 334 330 327 326 326 325 324 325 325 324 324 327 329 333 335 336 337 337 336 335 335 334 333 334 335 335 336 336 336 336 332 327 325 325 327 335 336 339 340 344 339
331 328 325 325 325 324 324 324 324 325 325 328 334 335 338 339 339 340 338 335 333 332 332 332 332 332 331 331 331 333 335 336 337 337 333 326 325 333 335 335 339 343 340
324 325 325 326 328 330 331 331 330 332 334 335 336 338 338 339 340 340 338 336 336 337 337 337 337 337 337 338 336 336 335 336 335 336 337 337 329 333 335 336 340 342 340
332 332 337 339 339 340 339 339 339 339 339 338 336 337 339 340 339 339 338 338 338 336 338 337 338 337 337 339 340 338 339 337 337 336 337 338 334 333 334 336 340 340 338
339 342 342 343 342 342 342 342 341 340 340 339 338 337 334 336 338 337 338 337 338 338 337 338 337 337 338 338 338 337 338 338 338 336 337 336 339 339 337 337 338 338 337
343 342 343 343 343 343 343 342 341 340 338 338 338 337 335 333 335 337 338 338 338 337 338 338 338 337 337 338 338 336 336 336 337 338 337 336 338 335 332 329 334 336 334
344 343 343 343 344 343 343 341 340 339 339 338 337 333 333 332 332 332 333 338 338 337 337 337 337 336 336 337 337 337 336 337 335 335 335 335 336 334 334 330 327 328 327
344 344 343 343 343 341 341 340 339 338 338 337 333 331 327 326 330 332 331 330 333 337 337 336 335 335 335 335 337 336 336 337 336 337 335 335 335 334 334 330 329 330 329
345 343 342 342 341 341 340 339 339 338 335 332 325 319 317 316 317 317 321 328 330 330 330 330 331 332 332 332 332 335 335 335 335 333 336 336 334 334 334 333 331 331 328
346 345 343 342 341 340 339 339 337 333 328 318 314 313 313 312 312 312 311 312 315 322 324 325 325 325 325 325 325 325 325 326 330 332 332 334 334 333 333 333 332 332 330
341 340 341 341 339 337 335 333 329 319 315 314 313 313 313 314 313 313 312 311 311 312 314 315 316 317 317 318 319 319 318 319 321 325 327 327 327 327 329 333 332 331 331
338 335 334 334 334 331 326 321 317 315 314 314 314 314 315 315 314 313 313 312 311 312 313 314 315 315 315 315 315 315 315 316 318 318 319 320 323 323 326 329 331 331 331
337 333 330 329 325 320 316 315 314 313 313 314 315 315 315 315 314 313 313 311 310 312 314 315 314 313 314 314 314 314 315 316 319 323 323 322 320 321 323 327 329 330 329
336 330 323 319 315 315 315 314 313 313 313 314 315 316 315 315 314 313 310 311 312 313 314 314 314 316 314 314 319 320 321 325 323 322 323 324 326 327 329 328 328 327 326
332 330 319 314 316 316 314 312 312 313 314 315 315 315 315 314 312 309 311 313 313 313 313 313 314 314 313 315 318 319 320 320 319 320 320 320 320 319 320 319 317 318 320
331 328 315 316 316 315 312 311 312 314 315 315 315 314 313 310 308 311 312 312 312 312 311 311 312 312 312 316 317 315 313 313 315 316 317 317 317 317 314 314 313 315 319
324 318 315 316 316 314 311 311 312 313 314 314 313 310 308 308 310 310 311 311 311 310 310 310 311 311 311 313 316 316 315 313 309 308 310 314 317 316 315 314 313 315 313
318 315 315 316 316 314 311 311 311 312 312 309 306 307 308 310 310 310 310 310 310 310 309 309 309 311 310 310 310 313 310 309 311 308 307 311 316 317 316 315 316 314 313
317 314 315 316 316 315 311 310 309 309 307 307 308 309 309 309 309 309 309 308 308 309 308 307 306 309 309 309 308 307 307 307 307 308 307 307 314 316 316 315 314 313 310
318 314 315 316 316 315 311 310 308 307 307 308 309 309 309 308 308 307 305 307 305 308 306 308 305 306 307 307 307 307 306 306 306 305 305 305 308 311 310 309 310 310 309
318 316 315 316 316 315 311 309 308 307 308 308 309 308 309 309 308 307 306 306 306 306 306 306 306 305 305 305 305 305 305 304 303 303 303 304 304 308 308 308 310 308 306
Wind_Speed
11 10 8 7 9 9 10 9 7 7 6 5 4 4 4 5 5 5 6 6 7 7 6 6 5 4 3 3 3 3 4 4 4 6 7 8 7 6 7 6 4 2 3
10 10 8 7 8 9 8 8 8 7 5 3 2 3 3 4 5 6 7 7 7 6 5 5 4 3 3 2 2 1 0 1 1 1 1 1 2 4 3 4 5 6 3
10 11 9 8 8 8 8 7 7 5 4 3 4 4 5 5 5 5 5 5 6 6 5 4 4 3 2 2 2 1 1 2 3 4 4 5 3 2 3 3 2 4 3
11 11 9 7 7 7 7 7 7 6 6 5 5 5 4 4 5 5 6 6 7 7 6 6 5 4 4 4 4 5 4 3 4 5 7 8 8 7 5 8 6 4 3
12 11 9 8 7 7 7 8 8 8 7 6 6 5 5 5 6 7 8 8 8 8 7 7 7 6 6 6 5 5 5 5 4 6 8 9 10 8 6 9 10 6 3
14 12 10 9 9 9 9 9 9 8 8 7 7 7 7 7 7 7 7 6 6 5 6 5 6 7 8 8 8 7 6 5 5 7 8 9 11 11 9 11 9 10 7
15 14 13 13 12 12 11 11 10 9 8 8 6 5 4 3 4 5 6 6 7 7 5 5 5 6 7 8 8 8 8 8 8 8 9 9 9 13 12 12 13 12 11
17 17 17 16 15 14 13 13 11 10 8 6 4 4 3 4 4 3 3 3 4 4 4 2 3 3 4 5 5 5 5 7 8 10 11 10 7 6 7 9 13 14 15
20 20 18 16 14 12 12 11 9 7 5 4 4 5 6 7 6 6 5 6 5 4 4 4 4 4 4 1 1 1 3 4 5 6 7 5 5 3 5 5 11 15 15
19 19 17 14 12 10 9 7 7 5 2 3 5 8 9 10 11 11 9 9 9 8 8 7 8 8 6 5 5 4 4 4 4 6 6 5 3 2 4 7 12 11 13
19 19 15 13 11 8 6 5 4 2 3 7 9 12 14 14 11 11 12 11 12 11 11 10 11 11 10 9 9 8 8 8 8 7 6 6 5 3 7 8 9 14 16
20 18 15 13 12 10 9 6 3 3 5 11 15 15 11 11 10 11 13 15 15 15 15 16 16 16 14 14 13 12 12 11 13 13 8 7 8 7 5 7 9 6 9
18 13 11 11 11 8 7 5 4 5 9 13 14 12 11 11 12 14 15 16 18 21 21 20 20 20 20 19 19 17 17 17 16 15 13 13 13 14 11 6 6 7 8
19 15 12 11 11 9 8 6 8 10 11 12 11 11 11 12 12 13 15 18 19 20 20 20 21 22 22 22 21 22 21 20 19 15 15 16 15 15 14 11 9 10 7
19 18 15 14 12 11 9 9 11 11 9 8 10 13 14 15 16 18 19 20 20 20 20 21 21 22 21 21 20 21 21 21 21 20 17 16 16 16 16 15 13 13 12
18 16 15 14 12 10 8 7 7 6 7 9 12 15 18 20 20 20 20 20 21 20 19 19 21 21 21 21 20 19 18 17 18 18 17 14 13 13 13 13 14 15 15
14 11 13 13 12 9 6 5 4 5 8 11 14 16 19 20 21 22 21 22 22 20 18 18 19 21 20 19 18 17 15 13 13 12 13 15 16 15 14 12 12 14 14
11 9 11 11 10 8 5 3 4 7 10 13 16 17 20 21 24 25 26 26 20 16 16 15 17 17 15 16 16 16 12 8 4 1 2 1 5 6 11 13 13 13 12
9 10 10 9 7 6 4 3 5 9 12 14 15 17 19 21 24 25 25 19 15 13 13 14 13 12 16 13 11 7 11 12 10 11 11 9 7 4 4 4 4 4 2
9 9 9 9 6 3 3 5 7 10 12 13 15 16 18 21 22 20 16 13 14 13 13 13 13 12 16 8 22 23 20 17 14 14 13 13 13 11 9 9 7 5 2
13 13 12 11 7 3 3 5 7 10 11 12 14 16 19 17 15 15 15 14 14 13 13 13 13 12 16 13 14 21 22 21 16 16 14 13 10 10 10 8 10 7 4
14 16 14 11 7 3 2 5 6 8 10 12 15 14 10 13 15 14 13 13 13 13 13 15 9 11 14 15 3 7 7 14 21 23 17 9 10 10 10 9 8 7 5
19 18 16 11 7 1 5 7 7 9 11 10 6 11 14 15 13 12 11 12 13 14 16 18 16 10 13 19 21 8 6 7 5 14 20 15 9 7 6 6 7 6 6
20 19 15 11 6 1 5 6 6 6 2 6 12 16 14 14 13 13 13 13 12 13 15 19 19 16 12 17 20 19 18 16 10 6 14 17 12 8 7 6 5 5 7
19 18 15 11 6 2 6 7 5 3 7 12 14 14 14 14 15 16 14 11 12 12 15 15 19 20 18 16 15 13 13 16 18 18 15 17 14 13 8 8 7 5 5
20 19 16 11 6 2 5 6 4 7 10 12 14 14 14 13 12 15 15 14 20 17 16 17 19 20 18 19 19 18 19 20 19 18 17 16 14 7 7 6 3 3 6
Wind_Direction
156 135 129 136 146 154 151 147 145 145 146 145 134 116 111 112 105 86 68 62 61 60 59 60 62 62 60 59 57 52 49 59 83 98 88 80 66 76 91 96 81 173 144
151 130 128 132 134 143 157 162 160 157 150 137 114 91 77 68 60 54 51 49 45 45 49 55 58 57 55 50 45 29 301 265 221 194 104 136 154 99 84 92 72 84 141
148 133 130 131 128 127 130 133 134 134 125 99 76 64 62 59 56 50 43 35 28 23 21 23 21 11 359 349 339 325 308 282 256 246 221 206 201 190 210 201 123 101 78
144 134 135 130 121 118 117 117 112 107 102 94 87 77 64 56 45 38 32 30 30 24 14 5 358 345 333 325 319 314 308 291 272 254 242 234 226 224 228 214 219 170 144
139 139 140 135 129 122 117 112 110 108 106 99 90 79 65 57 54 51 44 36 27 17 10 1 352 341 331 326 321 317 315 303 285 263 254 247 237 231 250 211 215 221 199
138 140 136 128 125 116 113 111 107 100 98 94 89 84 78 70 62 49 34 21 359 344 338 334 322 313 305 299 295 294 293 286 279 272 264 254 237 231 243 227 210 224 234
138 136 128 123 117 116 112 104 100 104 100 96 95 85 90 68 51 40 36 25 14 10 353 335 336 333 324 313 306 295 283 278 277 275 273 273 259 241 247 256 221 226 233
129 124 120 122 119 114 109 105 106 106 105 100 73 26 351 343 351 359 360 351 8 33 41 35 10 14 24 17 14 348 313 291 280 281 283 282 274 260 265 255 225 227 234
124 123 122 121 117 110 102 103 108 105 91 61 27 355 325 319 320 301 305 289 278 288 286 274 273 290 309 332 75 354 312 306 314 331 299 277 282 276 287 266 226 238 249
132 131 125 126 121 117 114 119 128 114 68 4 345 344 326 305 300 298 292 274 275 283 283 287 276 286 293 280 274 299 260 253 277 306 315 261 257 284 325 292 264 256 264
144 149 151 148 144 135 140 157 162 180 307 328 330 324 315 302 290 286 288 283 276 279 278 274 273 278 279 276 273 271 276 256 251 262 290 278 255 273 329 318 271 274 280
158 164 167 165 166 170 183 204 224 267 316 321 322 325 321 308 298 291 283 276 275 274 271 271 272 272 274 268 266 270 268 267 261 262 254 257 255 252 288 327 317 286 290
170 174 175 182 192 195 211 240 273 298 313 316 318 320 323 317 302 292 287 281 274 269 270 272 273 273 273 271 269 270 267 267 271 266 264 245 239 245 252 275 294 307 312
172 174 174 180 189 200 221 245 275 297 310 317 322 328 323 321 316 305 296 287 284 284 283 282 280 278 276 275 274 268 270 268 269 269 261 258 254 248 252 263 272 281 285
181 184 185 191 202 212 226 259 280 295 313 320 325 323 323 324 325 321 311 303 297 295 295 295 291 286 284 277 276 274 272 271 266 263 265 258 260 254 256 255 258 271 273
183 191 197 200 208 220 233 249 274 304 328 331 324 322 328 333 334 331 325 318 312 308 305 302 301 298 295 293 288 286 279 275 272 264 260 256 251 255 256 240 259 265 264
177 185 191 191 193 197 209 224 263 303 320 315 314 323 329 332 335 337 338 336 329 321 317 311 303 305 303 299 295 286 279 274 277 282 272 265 260 257 259 241 258 263 253
176 178 177 177 173 176 192 239 306 305 304 311 318 326 333 337 340 339 338 337 332 324 329 334 332 333 331 315 302 286 282 281 281 359 7 277 260 244 227 226 240 252 253
178 175 177 168 162 159 185 252 294 297 301 307 317 326 334 339 337 338 345 355 10 6 360 357 356 11 355 356 35 69 112 119 105 94 95 94 99 119 174 218 245 238 260
185 185 178 167 161 171 270 296 291 290 295 305 316 328 336 336 339 353 20 20 23 11 7 25 26 13 1 78 94 92 96 100 94 86 78 81 78 74 72 63 48 33 20
192 189 179 172 173 193 270 280 286 286 297 309 319 327 328 343 9 35 32 21 23 16 15 9 26 22 16 139 104 92 83 77 77 78 90 88 78 71 71 74 56 31 44
191 183 183 178 182 208 291 305 305 301 307 317 325 328 11 38 51 45 35 28 21 23 21 22 37 37 32 35 115 114 79 71 59 60 64 82 83 78 74 59 54 73 50
192 188 185 183 191 231 338 337 327 311 319 331 16 61 66 68 62 54 50 51 40 41 40 37 40 63 57 55 54 80 52 33 59 49 50 53 87 79 70 68 81 66 21
191 189 187 190 191 285 357 353 336 317 341 60 78 81 79 81 69 58 49 41 36 49 44 45 51 58 59 63 65 60 57 47 39 15 26 43 52 71 72 59 64 47 21
193 194 192 192 200 287 355 358 8 49 75 91 93 92 88 78 69 49 38 49 56 50 44 52 56 58 55 50 47 41 44 50 46 42 24 28 48 63 60 60 51 56 36
191 199 197 197 205 265 353 357 46 91 97 106 104 106 94 80 62 44 54 67 68 66 62 55 52 53 53 51 49 49 46 44 37 32 27 17 16 40 30 54 73 356 325